Temp
6 4 3 1 -1 -4 -6 -7 -7 -7 -7 -7 -7 -7 -7 -7 -7 -7 -7 -7 -6 -6 -6 -6 -5 -2 -2 -2 -1 0 2 2 2 3 3 4 4 5 6 6 6 7 7 7 7 8 9
5 4 2 -0 -3 -6 -8 -8 -7 -7 -7 -7 -7 -7 -7 -8 -7 -7 -7 -7 -7 -7 -6 -6 -5 -5 -3 -2 -0 -0 1 2 2 3 3 3 4 5 5 6 6 7 7 7 7 7 9
4 3 1 -1 -4 -7 -8 -8 -8 -8 -8 -8 -8 -8 -8 -7 -7 -7 -7 -7 -7 -7 -7 -7 -6 -4 -5 -2 -2 -1 -1 1 2 2 3 3 4 3 4 5 6 6 6 7 7 7 7
4 2 1 -2 -5 -8 -8 -8 -8 -8 -8 -8 -8 -8 -8 -8 -7 -7 -7 -7 -7 -6 -7 -6 -6 -5 -4 -3 -2 -1 -1 -0 1 2 2 3 3 3 3 4 5 5 6 5 6 7 7
3 1 -1 -2 -7 -9 -9 -8 -8 -8 -8 -8 -8 -8 -8 -8 -8 -7 -7 -7 -7 -7 -6 -6 -6 -6 -4 -2 -2 -1 -1 -0 -1 1 2 1 2 2 2 3 4 4 5 6 6 7 7
3 1 -1 -3 -6 -9 -9 -9 -9 -9 -9 -9 -9 -8 -8 -8 -8 -7 -7 -7 -7 -7 -6 -6 -6 -6 -4 -3 -3 -2 -1 -1 -1 -0 1 0 0 1 2 3 3 4 4 6 6 7 7
2 1 -1 -3 -6 -8 -9 -9 -9 -9 -9 -9 -9 -9 -8 -8 -8 -8 -7 -7 -7 -6 -6 -6 -6 -6 -5 -4 -4 -3 -2 -1 -1 -1 0 0 -0 1 2 3 4 5 5 7 6 6 7
2 0 -1 -3 -5 -7 -9 -9 -9 -9 -10 -10 -9 -9 -9 -8 -8 -8 -7 -7 -7 -7 -6 -7 -7 -6 -5 -5 -4 -3 -3 -2 -1 -1 -1 -0 1 1 2 2 3 4 5 6 6 5 6
2 0 -0 -1 -4 -6 -8 -9 -9 -10 -10 -10 -9 -9 -9 -9 -8 -8 -8 -7 -8 -7 -7 -7 -7 -6 -5 -5 -4 -3 -3 -2 -2 -1 -1 1 1 1 1 2 3 3 4 5 5 5 5
1 1 0 0 -2 -5 -7 -9 -9 -10 -10 -10 -9 -9 -8 -8 -8 -8 -8 -7 -7 -7 -7 -7 -7 -7 -6 -6 -4 -3 -3 -2 -2 -1 -0 -1 -0 0 1 2 3 3 4 5 5 5 4
2 1 1 -0 -1 -4 -7 -8 -9 -9 -9 -9 -9 -9 -8 -8 -8 -8 -8 -7 -7 -7 -12 -7 -8 -8 -7 -7 -5 -4 -3 -2 -2 -2 -1 -0 -0 0 1 2 2 2 3 4 4 5 5
1 1 0 -0 -2 -4 -7 -8 -9 -9 -9 -9 -8 -8 -8 -8 -8 -8 -7 -7 -7 -8 -13 -8 -8 -9 -7 -7 -4 -3 -3 -3 -2 -2 -2 -1 -0 0 2 2 2 2 3 3 3 4 1
1 1 -0 -0 -1 -3 -6 -8 -8 -8 -8 -8 -8 -8 -8 -8 -8 -7 -7 -7 -7 -9 -9 -8 -8 -8 -7 -7 -6 -5 -3 -2 -2 -2 -3 -2 0 0 1 1 1 2 3 0 -1 -2 -1
0 0 -0 -0 -1 -3 -5 -7 -8 -8 -8 -8 -8 -8 -8 -8 -8 -8 -7 -8 -8 -10 -9 -8 -8 -8 -8 -7 -6 -5 -5 -2 -3 -2 -2 -2 -2 -0 1 2 2 2 3 1 -3 -3 -1
1 -0 -0 -1 -1 -2 -5 -7 -8 -8 -8 -8 -8 -8 -8 -8 -8 -8 -7 -8 -10 -10 -10 -9 -8 -8 -8 -7 -6 -5 -5 -3 -3 -2 -1 -2 -1 0 1 1 2 1 1 4 3 1 2
-0 -1 -1 -1 -1 -2 -4 -6 -7 -8 -8 -8 -8 -8 -8 -8 -8 -8 -8 -9 -10 -10 -10 -9 -9 -9 -8 -7 -7 -5 -4 -3 -2 -2 -1 -1 -1 -0 1 0 1 2 3 2 3 -2 -1
-0 -1 -1 -1 -2 -2 -3 -5 -7 -8 -8 -8 -8 -8 -8 -8 -8 -8 -9 -10 -10 -10 -9 -9 -9 -8 -8 -8 -7 -7 -5 -3 -3 -2 -1 -0 0 -0 0 0 1 1 2 2 3 3 -1
-0 -1 -1 -2 -2 -2 -3 -4 -6 -7 -8 -8 -8 -8 -8 -8 -8 -9 -10 -10 -10 -9 -9 -9 -9 -8 -8 -8 -8 -7 -6 -6 -3 -3 -3 -1 0 0 -0 1 1 1 2 2 3 2 2
-1 -1 -1 -1 -2 -2 -3 -4 -5 -7 -7 -8 -8 -8 -9 -8 -8 -9 -10 -10 -10 -9 -9 -8 -8 -9 -9 -8 -8 -8 -7 -6 -5 -3 -3 -3 -2 -2 -1 -1 1 1 2 2 3 3 3
-1 -1 -1 -1 -2 -2 -2 -3 -5 -6 -7 -7 -8 -9 -9 -9 -9 -9 -9 -9 -9 -9 -9 -9 -9 -8 -9 -8 -8 -7 -7 -6 -6 -4 -4 -3 -2 -2 -1 0 1 1 2 2 2 2 3
-2 -1 -2 -2 -2 -2 -3 -3 -5 -6 -7 -8 -8 -9 -10 -10 -10 -10 -10 -10 -10 -9 -9 -10 -9 -10 -11 -9 -8 -8 -8 -7 -6 -4 -4 -3 -3 -2 -1 0 0 1 2 2 2 2 2
-2 -2 -2 -2 -2 -2 -2 -3 -5 -6 -7 -8 -9 -9 -10 -10 -11 -11 -10 -10 -10 -9 -10 -10 -11 -11 -10 -10 -10 -8 -8 -8 -6 -5 -4 -4 -3 -3 -2 -0 0 0 1 2 2 2 2
-3 -2 -2 -2 -2 -3 -3 -3 -4 -6 -7 -8 -9 -9 -10 -11 -11 -11 -11 -11 -11 -11 -10 -11 -11 -11 -10 -10 -9 -9 -7 -7 -7 -6 -5 -4 -4 -3 -3 -2 -2 -1 1 2 2 2 3
-3 -3 -3 -3 -3 -3 -3 -3 -4 -6 -7 -8 -9 -9 -10 -10 -11 -10 -11 -10 -10 -10 -10 -10 -10 -10 -10 -10 -8 -7 -7 -6 -6 -6 -6 -5 -4 -4 -3 -3 -4 -0 1 1 2 2 2
-4 -3 -3 -3 -3 -3 -3 -3 -4 -5 -6 -8 -8 -9 -9 -10 -10 -10 -10 -10 -9 -9 -9 -9 -9 -10 -9 -8 -8 -7 -7 -5 -4 -4 -4 -5 -6 -4 -3 -3 -2 -2 -0 1 1 2 2
-4 -4 -4 -4 -3 -3 -4 -4 -4 -5 -6 -7 -8 -9 -10 -10 -10 -11 -10 -10 -10 -9 -8 -9 -10 -10 -9 -9 -9 -9 -7 -7 -6 -5 -4 -4 -5 -5 -4 -3 -3 1 1 1 0 -0 1
-5 -4 -4 -4 -4 -4 -4 -4 -4 -4 -5 -7 -7 -9 -9 -10 -11 -11 -11 -11 -11 -11 -10 -10 -9 -9 -10 -9 -9 -8 -7 -5 -5 -5 -6 -7 -6 -6 -6 -3 -1 -1 -1 -0 -1 0 1
-5 -5 -5 -5 -5 -4 -4 -4 -4 -4 -5 -6 -7 -8 -9 -10 -10 -11 -11 -12 -12 -12 -11 -11 -10 -10 -10 -10 -10 -10 -9 -8 -6 -5 -5 -5 -5 -5 -5 -4 -3 -2 -2 -2 -0 1 0
-5 -5 -5 -5 -5 -5 -4 -4 -5 -5 -5 -5 -6 -7 -8 -9 -9 -11 -11 -12 -12 -12 -11 -10 -11 -11 -11 -12 -11 -11 -10 -9 -9 -7 -7 -5 -7 -6 -5 -5 -3 -4 -2 -2 -1 -0 -0
Height
3077 3068 3058 3048 3041 3034 3028 3023 3018 3014 3009 3005 3002 2999 2997 2995 2993 2991 2990 2990 2990 2991 2992 2994 2996 2997 3001 3006 3016 3024 3029 3036 3041 3046 3052 3056 3061 3067 3073 3079 3085 3089 3094 3100 3105 3107 3110
3075 3067 3056 3046 3038 3032 3026 3021 3017 3012 3007 3003 2999 2996 2994 2992 2990 2988 2987 2986 2987 2987 2987 2989 2991 2988 2992 2993 3010 3015 3019 3027 3035 3041 3048 3053 3058 3067 3073 3076 3082 3087 3092 3097 3103 3105 3106
3074 3065 3055 3044 3036 3030 3025 3019 3014 3010 3005 3001 2997 2994 2991 2989 2987 2986 2984 2983 2983 2983 2984 2985 2986 2985 2983 2989 3004 3011 3014 3020 3027 3036 3044 3053 3057 3063 3067 3074 3080 3084 3089 3093 3098 3103 3104
3073 3063 3053 3042 3034 3028 3022 3017 3012 3007 3002 2998 2995 2991 2989 2986 2984 2982 2981 2980 2979 2980 2980 2981 2982 2983 2978 2991 2995 3004 3010 3016 3022 3030 3041 3051 3054 3061 3065 3069 3075 3080 3084 3088 3093 3099 3101
3071 3062 3052 3042 3033 3026 3020 3014 3010 3005 3000 2996 2992 2989 2986 2983 2981 2979 2978 2977 2976 2977 2977 2978 2979 2978 2979 2982 2988 3001 3007 3014 3020 3027 3035 3044 3048 3053 3061 3064 3069 3073 3075 3081 3088 3094 3098
3070 3061 3050 3041 3032 3025 3019 3013 3007 3002 2998 2994 2990 2987 2984 2981 2979 2977 2975 2974 2973 2974 2975 2975 2973 2977 2979 2982 2987 2994 3004 3012 3017 3023 3029 3036 3040 3046 3052 3056 3052 3063 3071 3077 3082 3089 3094
3070 3060 3050 3040 3031 3024 3019 3013 3006 3000 2995 2990 2987 2984 2982 2979 2977 2975 2974 2973 2974 2973 2972 2972 2972 2973 2974 2976 2981 2990 2998 3006 3013 3017 3019 3027 3031 3029 3037 3049 3057 3065 3069 3073 3081 3085 3091
3070 3060 3050 3039 3031 3023 3016 3011 3004 2998 2992 2987 2984 2981 2980 2978 2976 2974 2972 2970 2970 2971 2969 2969 2969 2969 2971 2974 2977 2984 2992 2999 3006 3009 3017 3024 3019 3031 3043 3052 3058 3062 3066 3072 3078 3083 3089
3070 3060 3049 3039 3029 3021 3014 3009 3003 2996 2990 2984 2981 2979 2978 2977 2976 2974 2972 2970 2969 2968 2967 2967 2964 2964 2966 2969 2971 2980 2987 2995 3000 3008 3010 3013 3017 3030 3039 3048 3054 3058 3061 3068 3074 3080 3085
3069 3060 3050 3039 3028 3019 3012 3007 3002 2995 2989 2985 2981 2979 2978 2977 2977 2974 2972 2970 2969 2967 2965 2967 2965 2962 2962 2964 2967 2974 2979 2993 2997 3001 3011 3016 3021 3027 3035 3043 3051 3055 3062 3069 3073 3077 3080
3069 3060 3050 3039 3027 3017 3010 3005 3000 2995 2991 2987 2983 2980 2978 2977 2976 2974 2973 2969 2967 2965 2970 2968 2963 2961 2960 2960 2963 2969 2975 2985 2990 2996 3005 3010 3016 3022 3030 3036 3048 3056 3063 3069 3073 3076 3077
3070 3060 3051 3040 3028 3018 3011 3006 3002 2997 2992 2989 2985 2982 2980 2979 2977 2975 2972 2969 2967 2969 2970 2967 2963 2959 2956 2957 2960 2964 2971 2983 2990 2998 3003 3012 3018 3025 3029 3040 3048 3055 3063 3067 3070 3073 3071
3070 3061 3052 3041 3030 3019 3011 3005 3002 2999 2995 2991 2988 2984 2982 2980 2978 2975 2972 2970 2971 2972 2971 2968 2962 2958 2954 2953 2955 2962 2968 2973 2978 2988 2997 3008 3014 3018 3027 3037 3046 3053 3058 3064 3072 3071 3062
3071 3063 3053 3043 3033 3022 3013 3006 3002 2999 2996 2993 2990 2987 2985 2982 2979 2977 2974 2973 2973 2976 2973 2968 2964 2959 2956 2954 2958 2959 2959 2968 2978 2984 2992 3000 3010 3011 3018 3023 3024 3033 3044 3044 3057 3058 3057
3073 3064 3055 3045 3035 3024 3015 3007 3003 3000 2997 2995 2992 2989 2987 2985 2982 2979 2978 2974 2978 2977 2974 2968 2964 2961 2956 2954 2954 2961 2964 2962 2969 2978 2987 2995 3003 3009 3014 3020 3027 3033 3038 3043 3046 3049 3052
3075 3065 3057 3047 3037 3027 3018 3009 3004 3000 2998 2996 2993 2990 2988 2985 2983 2981 2980 2978 2978 2977 2973 2970 2967 2964 2959 2955 2955 2954 2957 2962 2966 2977 2985 2991 3003 3005 3012 3018 3024 3026 3033 3043 3044 3049 3050
3076 3068 3058 3049 3039 3029 3021 3012 3006 3002 2999 2997 2994 2992 2989 2987 2985 2983 2980 2981 2979 2976 2974 2971 2968 2965 2964 2962 2958 2956 2960 2964 2973 2979 2985 2990 2994 3003 3008 3008 3012 3021 3026 3031 3036 3036 3036
3078 3070 3062 3051 3042 3032 3023 3015 3009 3004 3000 2998 2997 2994 2990 2988 2988 2983 2983 2982 2981 2977 2974 2972 2969 2968 2967 2965 2961 2961 2962 2961 2963 2971 2978 2988 2991 2994 2997 3005 3011 3015 3018 3024 3027 3029 3030
3080 3072 3064 3056 3044 3034 3026 3018 3011 3006 3002 2999 2997 2996 2993 2990 2987 2986 2986 2984 2981 2978 2975 2971 2969 2968 2967 2966 2966 2962 2960 2962 2963 2966 2974 2978 2982 2988 2998 3002 3005 3010 3014 3018 3023 3024 3023
3083 3074 3066 3057 3047 3038 3029 3021 3014 3009 3004 3001 2997 2996 2994 2992 2991 2988 2986 2985 2983 2981 2978 2975 2972 2968 2967 2966 2965 2963 2962 2961 2960 2961 2968 2973 2976 2979 2982 2982 2992 2998 3004 3009 3014 3017 3019
3084 3077 3068 3060 3050 3041 3033 3024 3017 3013 3008 3004 3000 2998 2995 2993 2991 2989 2989 2987 2984 2981 2981 2977 2975 2972 2967 2962 2961 2961 2961 2961 2961 2961 2967 2970 2973 2978 2982 2987 2991 2992 2998 3004 3008 3009 3014
3085 3078 3070 3063 3053 3044 3036 3028 3022 3015 3010 3008 3004 3002 2998 2995 2993 2991 2988 2987 2984 2982 2979 2977 2974 2971 2967 2964 2963 2959 2961 2962 2963 2963 2966 2967 2973 2977 2980 2983 2987 2990 2994 2998 3001 3004 3007
3086 3080 3071 3064 3057 3047 3039 3031 3024 3018 3013 3009 3006 3003 3000 2999 2997 2995 2991 2988 2985 2982 2980 2974 2970 2967 2965 2965 2961 2959 2960 2961 2962 2962 2964 2970 2972 2974 2976 2979 2982 2984 2984 2987 2991 2996 3000
3087 3080 3073 3066 3059 3051 3043 3034 3027 3021 3016 3012 3008 3005 3002 3001 2998 2995 2993 2990 2986 2983 2979 2973 2968 2962 2960 2958 2957 2956 2955 2955 2958 2960 2963 2966 2968 2971 2974 2979 2978 2975 2978 2984 2987 2990 2994
3088 3082 3074 3068 3061 3053 3046 3038 3030 3024 3019 3014 3009 3006 3003 3000 2998 2996 2993 2989 2987 2984 2979 2973 2968 2961 2958 2953 2949 2948 2950 2952 2952 2956 2959 2965 2967 2969 2969 2972 2971 2970 2974 2977 2978 2978 2988
3089 3083 3076 3069 3063 3055 3048 3041 3034 3027 3021 3015 3011 3007 3003 3002 3001 2997 2993 2989 2984 2980 2979 2976 2971 2965 2961 2956 2955 2957 2955 2953 2953 2952 2955 2961 2964 2966 2964 2964 2965 2962 2971 2974 2978 2975 2983
3089 3083 3077 3070 3064 3058 3051 3044 3037 3031 3025 3019 3013 3008 3004 3001 3000 2998 2994 2990 2987 2984 2979 2973 2970 2967 2963 2959 2957 2956 2954 2952 2951 2952 2954 2955 2959 2957 2960 2959 2959 2959 2961 2965 2971 2973 2975
3089 3083 3077 3070 3065 3059 3052 3046 3039 3033 3027 3022 3016 3009 3006 3002 2999 2997 2994 2991 2987 2985 2981 2977 2974 2970 2966 2963 2962 2961 2956 2951 2951 2951 2952 2954 2954 2953 2956 2957 2957 2955 2956 2961 2960 2959 2963
3089 3083 3077 3070 3065 3059 3053 3047 3041 3035 3030 3023 3018 3011 3006 3002 3001 2999 2995 2993 2989 2985 2982 2979 2977 2973 2971 2969 2968 2964 2960 2957 2956 2950 2948 2950 2949 2946 2949 2949 2949 2950 2950 2950 2953 2955 2957
Wind_Speed
44 45 45 41 38 34 29 25 25 25 23 21 19 16 15 15 15 14 13 15 16 18 18 16 39 35 25 30 39 13 36 37 36 39 39 36 38 38 37 38 36 35 36 34 18 17 23
45 45 43 40 36 31 28 25 24 25 24 20 19 17 15 14 15 14 14 15 16 16 16 14 18 45 32 33 43 22 24 36 37 38 39 39 36 35 34 35 36 34 32 32 30 14 21
45 46 41 38 35 30 26 25 24 24 24 21 19 18 16 15 15 13 12 14 16 16 15 15 15 32 40 33 33 36 25 32 39 38 38 35 35 33 31 33 33 32 31 30 30 25 20
47 47 45 40 34 32 29 25 23 24 24 21 19 18 16 14 14 14 14 12 15 16 15 11 16 20 38 32 33 43 32 29 36 39 35 33 36 30 29 29 30 31 29 34 30 32 24
48 47 46 43 35 34 34 25 24 23 23 22 19 18 17 15 14 13 10 9 12 14 13 13 15 21 28 42 39 41 35 29 30 36 38 35 36 36 30 30 27 35 27 33 35 30 31
49 48 47 47 38 31 33 30 26 25 24 22 20 18 17 15 13 11 9 8 9 11 12 13 16 15 17 22 33 34 40 31 29 28 40 39 39 37 40 37 38 36 38 33 34 35 36
48 49 48 46 42 30 28 30 30 27 27 25 20 17 16 14 11 10 8 8 8 10 11 14 13 11 6 14 27 34 29 41 32 27 46 46 46 50 52 44 36 37 39 37 35 34 33
47 49 48 46 42 35 26 25 27 30 29 26 19 16 14 12 10 10 9 8 7 10 10 11 15 17 12 16 24 39 32 42 39 37 41 45 55 48 42 39 36 34 35 37 28 30 27
47 50 51 49 45 37 30 27 28 28 30 22 16 14 11 10 10 9 10 9 11 13 13 11 13 13 15 21 25 42 42 37 41 38 41 53 50 46 43 43 37 32 32 36 28 25 29
46 52 54 54 47 39 31 27 27 27 22 20 17 14 11 8 9 11 10 10 11 13 8 11 11 5 9 15 29 46 41 39 38 41 38 40 24 45 42 42 42 35 27 24 29 24 23
47 53 56 55 50 43 32 25 26 21 20 20 18 14 11 9 10 11 12 12 15 8 4 14 21 7 12 19 21 24 43 42 28 40 40 35 40 30 46 47 43 26 26 21 24 18 21
47 51 55 55 52 44 32 24 24 19 18 17 16 13 11 11 12 13 12 10 7 4 3 12 20 19 9 22 24 19 47 44 29 32 38 27 10 30 40 40 36 14 26 19 17 18 10
45 49 54 55 53 47 34 23 23 17 17 16 14 12 10 12 13 13 15 8 4 6 13 17 23 18 10 1 21 28 31 42 36 26 28 28 23 29 25 39 35 33 29 6 3 5 5
45 48 53 56 53 47 35 23 22 16 15 14 12 11 12 13 15 13 11 8 9 14 14 17 17 17 13 5 9 23 16 39 37 37 33 27 15 33 32 41 51 52 41 14 8 5 4
45 47 52 54 54 49 38 24 21 16 13 12 11 13 12 12 13 11 9 16 8 13 16 18 15 14 16 21 5 15 19 32 40 32 25 33 17 35 30 37 40 45 40 42 4 3 5
44 44 49 53 55 52 42 27 21 18 11 11 10 10 11 13 12 10 9 10 11 12 15 11 9 11 14 24 11 1 6 33 38 35 33 28 20 26 33 34 32 40 46 26 21 7 5
44 42 46 52 53 51 46 32 21 20 11 10 8 9 10 14 12 11 16 12 12 12 17 13 14 11 12 18 16 10 3 14 40 36 31 16 30 27 39 35 38 36 38 32 36 17 7
44 44 44 49 53 51 48 38 26 17 14 12 9 8 10 10 12 15 14 13 12 11 10 13 11 11 12 15 14 7 7 2 35 33 28 24 24 31 44 40 35 39 42 42 21 19 15
43 45 44 47 50 52 48 42 30 22 17 12 8 8 7 13 9 14 8 13 11 18 17 19 11 11 12 13 6 10 9 6 12 36 20 25 12 17 23 26 41 35 41 47 47 30 32
43 45 44 45 48 50 49 44 31 25 19 17 11 7 9 10 10 12 11 15 15 13 14 17 10 15 16 12 6 8 16 7 9 17 22 19 17 18 20 43 47 49 48 45 51 37 26
41 43 44 43 46 49 47 44 34 28 23 20 17 14 12 13 12 13 14 15 17 18 17 19 12 17 17 15 18 2 6 10 3 12 25 24 10 20 25 26 38 43 53 51 43 49 38
38 41 43 43 44 46 47 45 36 29 26 21 21 21 15 12 12 11 16 17 18 20 19 19 20 19 17 16 16 21 16 9 3 7 17 25 10 15 19 22 28 37 35 46 54 54 50
36 38 41 42 42 44 46 44 39 31 28 24 22 22 18 12 16 16 17 17 19 22 20 21 21 22 15 12 15 17 16 15 10 8 4 20 15 16 12 19 13 17 43 43 50 53 52
34 36 39 41 41 41 43 43 41 34 29 26 22 20 18 14 15 16 15 15 17 20 21 24 21 22 18 19 14 14 15 14 15 13 10 8 11 14 12 18 4 16 35 42 46 48 52
33 34 36 38 40 39 40 41 41 37 31 28 24 22 19 14 14 13 14 16 14 14 19 25 23 19 19 15 12 4 4 9 17 16 16 14 13 11 12 22 13 9 16 31 46 52 49
33 32 34 36 38 38 37 38 37 39 33 30 26 22 19 17 16 17 19 20 22 19 17 19 17 13 16 15 10 2 4 5 3 2 19 19 19 13 7 7 9 43 41 30 23 29 36
32 32 32 34 36 37 36 36 35 36 34 30 27 23 19 15 13 18 18 17 19 23 25 24 20 23 19 11 9 5 5 6 1 3 7 16 22 27 24 9 10 24 13 23 23 31 32
32 31 31 32 33 35 35 34 32 31 34 31 29 26 23 16 10 16 17 12 16 22 25 25 14 22 19 17 9 10 9 11 10 4 6 13 12 16 19 8 8 12 17 19 27 38 37
31 32 31 31 32 33 34 33 30 27 30 30 29 29 26 18 14 14 17 11 15 20 21 20 22 18 13 16 15 11 16 8 19 7 6 8 4 6 7 12 24 14 19 22 24 24 31
Wind_Direction
6 3 1 1 351 344 344 342 341 339 336 333 325 320 312 305 303 299 279 259 262 265 264 262 220 219 195 209 215 202 212 213 207 207 206 198 199 200 202 207 209 210 215 212 190 195 204
6 2 1 356 349 345 347 345 338 337 334 331 326 321 314 306 306 300 291 261 262 263 265 260 250 239 215 208 212 190 194 206 210 208 208 201 200 202 207 209 210 211 215 217 213 208 198
7 3 357 354 346 341 342 342 341 337 333 332 327 326 319 307 310 301 294 269 264 267 264 261 247 246 240 203 209 203 195 194 200 207 210 205 201 200 207 212 212 212 211 219 215 209 192
8 5 356 358 353 347 339 333 338 336 334 332 329 323 322 317 311 307 295 273 265 263 271 271 259 254 255 220 199 202 196 190 194 200 201 204 205 202 205 208 212 212 212 210 211 203 198
10 5 356 357 355 352 350 339 332 331 330 332 329 326 321 323 315 309 306 274 268 264 269 268 272 272 253 229 196 193 194 185 191 199 194 193 200 201 200 200 199 197 200 206 210 205 205
10 7 0 353 353 359 354 350 340 334 331 331 334 327 324 321 325 324 305 285 273 261 258 270 271 277 268 235 202 187 198 194 186 189 190 190 195 199 200 196 190 193 204 212 208 205 204
11 9 4 355 349 353 358 350 346 341 333 330 329 328 322 325 331 324 312 297 289 273 256 261 268 284 283 205 223 182 188 198 191 192 192 192 192 201 201 202 202 209 205 211 212 213 211
13 11 7 359 352 343 350 350 345 343 340 334 329 327 327 323 334 324 326 330 318 300 283 268 270 273 235 224 210 196 191 191 199 196 198 191 204 203 202 201 201 208 212 210 209 209 211
15 13 10 6 358 349 341 337 341 342 342 343 337 338 335 327 333 326 324 330 329 315 307 303 318 295 244 237 216 197 191 189 200 199 197 200 208 202 202 200 202 204 211 210 209 206 216
16 14 12 11 4 358 351 347 344 353 1 2 1 357 348 343 337 334 331 338 337 336 315 344 324 296 233 228 220 189 191 189 200 203 203 206 204 205 203 205 203 202 203 210 215 211 204
16 16 14 13 8 4 359 354 356 6 10 8 8 9 2 359 346 338 337 344 339 346 43 355 351 308 203 204 213 208 182 185 196 200 195 203 208 202 206 203 202 208 202 201 219 210 214
16 17 15 15 10 7 4 1 2 5 10 13 12 17 12 9 3 355 349 356 15 33 300 346 355 352 340 203 207 185 185 185 196 200 207 200 192 207 214 209 204 196 188 188 189 212 231
16 17 17 15 14 10 6 5 5 1 7 15 16 22 12 7 3 360 1 31 54 49 335 344 344 346 19 25 215 208 188 195 188 175 181 190 192 203 205 206 203 200 194 159 201 203 213
17 17 18 16 15 13 9 9 6 4 4 16 15 24 11 4 358 4 31 52 50 353 338 350 351 360 15 65 199 234 243 189 188 196 182 180 195 194 198 202 198 201 192 180 180 178 169
18 17 17 17 16 16 13 12 9 7 5 12 16 20 0 5 21 40 48 48 13 356 329 341 2 353 4 26 61 210 238 207 183 180 179 194 198 201 201 203 201 197 205 209 195 148 168
19 18 17 17 16 17 16 14 15 10 7 8 22 16 18 13 21 10 24 52 28 4 354 354 354 342 358 17 26 114 204 201 191 182 191 199 201 204 200 203 205 208 204 197 221 161 203
18 19 18 17 18 17 17 17 16 16 6 3 6 3 8 11 18 22 55 50 28 20 31 14 334 328 356 5 6 28 135 175 194 181 190 192 201 199 197 199 200 202 199 205 215 224 194
15 17 17 18 17 18 18 18 21 22 9 355 349 357 356 12 15 37 49 35 22 23 20 11 1 20 3 2 354 24 2 71 199 183 203 195 206 192 198 206 208 209 209 206 204 211 221
14 15 15 17 18 19 18 20 20 22 18 8 352 354 340 4 27 37 45 31 19 18 13 11 4 352 342 348 345 348 342 348 177 202 201 195 197 171 187 201 212 213 215 217 218 226 223
12 14 13 14 17 18 20 19 22 21 20 17 14 355 341 1 11 15 24 20 24 20 18 8 357 340 331 328 309 310 322 339 7 202 192 189 187 189 197 200 198 207 214 215 219 223 228
11 13 13 11 14 17 20 21 23 24 22 22 19 13 5 357 8 25 21 17 15 17 21 6 351 340 333 325 321 318 305 318 20 190 217 214 199 200 205 213 206 212 214 218 219 227 225
10 11 12 10 12 15 18 20 24 26 21 19 24 15 6 10 27 28 18 22 12 10 357 358 346 336 325 308 295 278 286 289 288 119 188 222 211 213 206 208 211 220 219 221 224 228 234
8 8 12 11 10 12 15 19 22 24 24 24 19 20 21 33 30 19 12 15 9 0 8 359 352 337 340 320 292 285 274 268 249 248 135 204 215 211 221 207 214 224 220 221 230 231 234
7 6 10 11 9 10 13 15 20 22 22 22 20 17 19 26 21 15 10 3 359 360 1 0 356 345 337 325 310 279 268 255 244 228 249 199 184 193 221 218 209 219 225 226 233 236 238
4 5 7 10 9 9 11 14 15 18 18 18 16 14 14 11 10 12 360 355 353 8 5 8 1 350 356 351 344 330 290 257 240 227 234 237 228 221 208 210 246 232 228 220 224 234 237
0 2 4 6 7 8 9 12 13 14 14 13 12 14 11 6 1 359 356 355 356 358 5 10 12 347 355 350 355 343 243 253 245 184 211 219 231 217 200 205 230 248 244 239 244 262 239
358 360 1 3 5 7 8 9 10 11 12 10 9 10 10 8 3 358 350 353 356 355 0 0 360 16 9 14 352 318 294 232 183 195 188 193 220 228 234 231 238 238 237 230 221 248 249
356 356 358 359 1 4 7 7 6 8 9 10 9 9 3 0 344 347 347 345 353 354 356 357 3 360 4 15 10 349 328 344 355 230 206 206 207 215 224 235 234 223 216 202 225 239 237
355 352 354 357 358 1 3 4 2 4 8 9 10 9 4 355 345 335 341 338 345 347 343 358 355 349 352 351 339 332 319 330 342 310 360 224 228 227 210 216 234 232 213 216 224 232 242